Flag for Argentina Weather past 2 weeks in Jujuy, Jujuy, Argentina

Now
68 °F

More clouds than sun.


Feels Like: 68 °F
Forecast: 59 / 73 °F
Wind: 5 mph from East

Location: Jujuy Aerodrome

Current Time: Apr 26, 2015 at 3:15:48 PM

Latest Report: Apr 26, 2015 at 1:00 PM


Visibility: 4 mi

Pressure: 30.01 "Hg

Humidity: 94%

Dew point: 66 °F

Location of JujuyLocation

Historic Weather in Jujuy — Graph

°F

Jujuy temperature yesterday

Maximum temperature yesterday: 77 °F (at 3:00 PM)
Minimum temperature yesterday: 61 °F (at 12:00 AM)
Average temperature yesterday: 67 °F

Past Weeks' High & Low Weather Summary

 TemperatureHumidityPressure
High86 °F (Apr 14, 5:00 PM)100% (Apr 12, 3:00 AM)30.24 "Hg (Apr 12, 3:00 AM)
Low59 °F (Apr 13, 7:00 AM)48% (Apr 17, 5:00 PM)29.68 "Hg (Apr 19, 3:00 PM)
Average68 °F84%30.03 "Hg
* Reported Apr 11 1:00 PM — Apr 26 1:00 PM, Jujuy, Weather by CustomWeather, © 2015

Note: Actual official high and low records may vary slightly from our data, if they occured in-between our weather recording intervals... More about our weather records

Advertising

Jujuy weather history for previous 24 hours

 ConditionsComfort  
Time TempWeatherWind HumidityBarometerVisibility
1:00 PM
Sun, Apr 26
68 °FMore clouds than sun.5 mph94%30.01 "Hg4 mi
9:00 AM64 °FDrizzle. More clouds than sun.No wind100%30.07 "Hg1 mi
8:00 AM64 °FDrizzle. More clouds than sun.No wind100%30.04 "Hg1 mi
7:00 AM64 °FDrizzle. Fog.No wind100%30.04 "Hg1 mi
6:00 AM64 °FDrizzle. Fog.No wind94%30.01 "Hg2 mi
5:00 AM64 °FDrizzle. Fog.No wind94%30.04 "Hg3 mi
4:00 AM64 °FDrizzle. Mostly cloudy.3 mph94%30.04 "Hg4 mi
3:00 AM64 °FDrizzle. Mostly cloudy.No wind94%30.04 "Hg5 mi
2:00 AM64 °FMostly cloudy.No wind94%30.07 "HgN/A
1:00 AM64 °FMostly cloudy.No wind94%30.07 "HgN/A
12:00 AM64 °FPassing clouds.3 mph94%30.07 "HgN/A
11:00 PM
Sat, Apr 25
64 °FPassing clouds.No wind94%30.09 "HgN/A
10:00 PM64 °FPassing clouds.5 mph88%30.09 "HgN/A
9:00 PM64 °FPassing clouds.6 mph88%30.09 "HgN/A
8:00 PM66 °FPassing clouds.5 mph88%30.04 "HgN/A
7:00 PM70 °FPassing clouds.6 mph73%30.04 "HgN/A
6:00 PM73 °FPassing clouds.5 mph65%30.04 "HgN/A
5:00 PM75 °FScattered clouds.7 mph57%30.04 "HgN/A
4:00 PM77 °FScattered clouds.7 mph57%30.07 "HgN/A
3:00 PM77 °FScattered clouds.6 mph57%30.09 "HgN/A
Weather by CustomWeather, © 2015

See weather overviewHow to use our weather pages